Location: Piolenc
(44.1794°N, 4.7641°E)
Time: 04:26:44
(UTC+00:00)

Cosmos 1634 Rocket - Pass Details

Date: 27 January 2021
Orbit: 960 x 991 km, 82.9° (Epoch: 27 February)

Event Time Altitude Azimuth Distance (km) Brightness Sun altitude
Rises 04:57:46 0° 176° (S) 3,629 7.1 -22.6°
Reaches altitude 10° 05:00:16 10° 174° (S) 2,687 6.4 -22.2°
Maximum altitude 05:06:21 66° 93° (E) 1,049 4.3 -21.1°
Drops below altitude 10° 05:12:28 10° 13° (NNE) 2,714 6.4 -20.0°
Sets 05:15:00 0° 11° (N) 3,669 7.1 -19.5°
